| time (UTC) | temp F | wind direction | speed knots | gust knots | rain 1hr in | rain 24hr in | rain mn in | humidity % | barometer mb |
| 20260905064518 | 70 | 7 | 2.6 | 5.2 | 0.00 | 0.00 | 0.00 | 51 | 1003.7 |
| 20260905063015 | 71 | 25 | 1.7 | 3.5 | 0.00 | 0.00 | 0.00 | 49 | 1003.6 |
| 20260905061514 | 72 | 11 | 0.0 | 3.5 | 0.00 | 0.00 | 0.00 | 48 | 1003.4 |
| 20260905060010 | 73 | 9 | 4.3 | 6.1 | 0.00 | 0.00 | 0.00 | 46 | 1003.2 |
| 20260905054512 | 74 | 20 | 4.3 | 8.7 | 0.00 | 0.00 | 0.00 | 44 | 1003.1 |
| 20260905053009 | 75 | 41 | 6.1 | 10.4 | 0.00 | 0.00 | 0.00 | 42 | 1003.1 |
| 20260905051511 | 75 | 13 | 3.5 | 7.0 | 0.00 | 0.00 | 0.00 | 41 | 1003.1 |
| 20260905050007 | 76 | 18 | 3.5 | 7.0 | 0.00 | 0.00 | 0.00 | 40 | 1003.0 |
| 20260905044508 | 76 | 29 | 5.2 | 7.0 | 0.00 | 0.00 | 0.00 | 41 | 1002.9 |
| 20260905043007 | 76 | 30 | 4.3 | 7.0 | 0.00 | 0.00 | 0.00 | 40 | 1003.1 |
| 20260905041506 | 77 | 35 | 5.2 | 7.0 | 0.00 | 0.00 | 0.00 | 40 | 1002.9 |
| 20260905040005 | 78 | 26 | 4.3 | 7.0 | 0.00 | 0.00 | 0.00 | 39 | 1002.8 |
| 20260905034511 | 80 | 35 | 3.5 | 7.0 | 0.00 | 0.00 | 0.00 | 36 | 1002.8 |
| 20260905033005 | 81 | 55 | 2.6 | 3.5 | 0.00 | 0.00 | 0.00 | 35 | 1002.8 |
| 20260905031505 | 81 | 76 | 0.0 | 3.5 | 0.00 | 0.00 | 0.00 | 36 | 1002.8 |
| 20260905030013 | 80 | 154 | 1.7 | 7.0 | 0.00 | 0.00 | 0.00 | 36 | 1003.0 |
| 20260905024504 | 79 | 53 | 0.0 | 1.7 | 0.00 | 0.00 | 0.00 | 38 | 1002.9 |
| 20260905023009 | 80 | 195 | 0.0 | 0.9 | 0.00 | 0.00 | 0.00 | 37 | 1002.4 |
| 20260905021505 | 81 | 195 | 0.0 | 1.7 | 0.00 | 0.00 | 0.00 | 37 | 1001.8 |
| 20260905020002 | 81 | 195 | 0.9 | 5.2 | 0.00 | 0.00 | 0.00 | 37 | 1001.6 |
| 20260905014501 | 82 | 224 | 2.6 | 4.3 | 0.00 | 0.00 | 0.00 | 36 | 1001.7 |
| 20260905013001 | 83 | 233 | 1.7 | 7.8 | 0.00 | 0.00 | 0.00 | 35 | 1001.6 |
| 20260905011603 | 84 | 235 | 2.6 | 7.0 | 0.00 | 0.00 | 0.00 | 31 | 1001.5 |
| 20260905010105 | 85 | 188 | 3.5 | 10.4 | 0.00 | 0.00 | 0.00 | 28 | 1001.3 |
| 20260905004603 | 87 | 169 | 2.6 | 9.6 | 0.00 | 0.00 | 0.00 | 25 | 1001.1 |
| 20260905003059 | 88 | 167 | 6.1 | 13.0 | 0.00 | 0.00 | 0.00 | 25 | 1000.9 |
| 20260905001559 | 88 | 201 | 7.8 | 13.9 | 0.00 | 0.00 | 0.00 | 27 | 1001.1 |
| 20260905000058 | 89 | 180 | 7.8 | 17.4 | 0.00 | 0.00 | 0.00 | 27 | 1001.0 |
| 20260904234557 | 92 | 132 | 7.8 | 17.4 | 0.00 | 0.00 | 0.00 | 22 | 1001.1 |
| 20260904233103 | 92 | 181 | 7.0 | 13.9 | 0.00 | 0.00 | 0.00 | 22 | 1001.1 |
| 20260904231556 | 91 | 155 | 4.3 | 12.2 | 0.00 | 0.00 | 0.00 | 23 | 1001.0 |
| 20260904230055 | 91 | 81 | 4.3 | 9.6 | 0.00 | 0.00 | 0.00 | 22 | 1000.9 |
| 20260904224554 | 92 | 45 | 6.1 | 13.0 | 0.00 | 0.00 | 0.00 | 21 | 1000.8 |
| 20260904223054 | 92 | 109 | 2.6 | 9.6 | 0.00 | 0.00 | 0.00 | 20 | 1000.7 |
| 20260904221559 | 93 | 134 | 6.1 | 12.2 | 0.00 | 0.00 | 0.00 | 20 | 1000.9 |
| 20260904220054 | 92 | 165 | 3.5 | 9.6 | 0.00 | 0.00 | 0.00 | 20 | 1000.9 |
| 20260904214551 | 92 | 183 | 6.1 | 10.4 | 0.00 | 0.00 | 0.00 | 20 | 1001.1 |
| 20260904213050 | 92 | 294 | 0.9 | 11.3 | 0.00 | 0.00 | 0.00 | 20 | 1001.0 |
| 20260904211553 | 91 | 43 | 2.6 | 7.0 | 0.00 | 0.00 | 0.00 | 21 | 1001.3 |
| 20260904210049 | 91 | 51 | 2.6 | 8.7 | 0.00 | 0.00 | 0.00 | 21 | 1001.4 |
| 20260904204548 | 91 | 92 | 5.2 | 16.5 | 0.00 | 0.00 | 0.00 | 21 | 1001.5 |
| 20260904203050 | 92 | 38 | 4.3 | 9.6 | 0.00 | 0.00 | 0.00 | 21 | 1001.8 |
| 20260904201546 | 91 | 82 | 6.1 | 9.6 | 0.00 | 0.00 | 0.00 | 21 | 1001.9 |
| 20260904200052 | 90 | 78 | 5.2 | 11.3 | 0.00 | 0.00 | 0.00 | 21 | 1002.0 |
| 20260904194545 | 91 | 67 | 4.3 | 9.6 | 0.00 | 0.00 | 0.00 | 21 | 1002.3 |
| 20260904193047 | 91 | 152 | 1.7 | 7.0 | 0.00 | 0.00 | 0.00 | 21 | 1002.4 |
| 20260904191544 | 90 | 170 | 4.3 | 10.4 | 0.00 | 0.00 | 0.00 | 21 | 1002.5 |
| 20260904190043 | 91 | 144 | 7.0 | 8.7 | 0.00 | 0.00 | 0.00 | 20 | 1002.7 |
| 20260904184558 | 90 | 190 | 4.3 | 7.8 | 0.00 | 0.00 | 0.00 | 21 | 1002.8 |
| 20260904183040 | 90 | 46 | 2.6 | 8.7 | 0.00 | 0.00 | 0.00 | 21 | 1003.0 |
| 20260904181541 | 89 | 76 | 1.7 | 7.0 | 0.00 | 0.00 | 0.00 | 21 | 1003.2 |
| 20260904180049 | 89 | 124 | 2.6 | 6.1 | 0.00 | 0.00 | 0.00 | 22 | 1003.3 |
| 20260904174539 | 89 | 167 | 2.6 | 6.1 | 0.00 | 0.00 | 0.00 | 22 | 1003.4 |
| 20260904173045 | 89 | 300 | 0.0 | 5.2 | 0.00 | 0.00 | 0.00 | 22 | 1003.7 |
| 20260904171532 | 88 | 149 | 0.0 | 5.2 | 0.00 | 0.00 | 0.00 | 23 | 1003.8 |
| 20260904170031 | 87 | 230 | 1.7 | 5.2 | 0.00 | 0.00 | 0.00 | 24 | 1003.9 |
| 20260904164529 | 85 | 258 | 0.0 | 3.5 | 0.00 | 0.00 | 0.00 | 24 | 1004.1 |
| 20260904163026 | 85 | 210 | 0.9 | 4.3 | 0.00 | 0.00 | 0.00 | 25 | 1004.2 |
| 20260904161521 | 83 | 191 | 1.7 | 3.5 | 0.00 | 0.00 | 0.00 | 26 | 1004.3 |
| 20260904160021 | 82 | 163 | 1.7 | 4.3 | 0.00 | 0.00 | 0.00 | 27 | 1004.3 |
| 20260904154516 | 80 | 177 | 0.9 | 3.5 | 0.00 | 0.00 | 0.00 | 27 | 1004.3 |
| 20260904153010 | 78 | 131 | 0.9 | 3.5 | 0.00 | 0.00 | 0.00 | 29 | 1004.4 |
| 20260904151507 | 76 | 206 | 1.7 | 4.3 | 0.00 | 0.00 | 0.00 | 29 | 1004.4 |
| 20260904150011 | 75 | 180 | 0.9 | 4.3 | 0.00 | 0.00 | 0.00 | 30 | 1004.4 |
| 20260904144558 | 73 | 149 | 2.6 | 4.3 | 0.00 | 0.00 | 0.00 | 34 | 1004.6 |
| 20260904143055 | 72 | 217 | 1.7 | 3.5 | 0.00 | 0.00 | 0.00 | 31 | 1004.4 |
| 20260904141611 | 71 | 188 | 0.0 | 1.7 | 0.00 | 0.00 | 0.00 | 33 | 1004.5 |
| 20260904140049 | 69 | 26 | 0.0 | 0.9 | 0.00 | 0.00 | 0.00 | 36 | 1004.3 |
| 20260904134547 | 68 | 26 | 0.0 | 0.0 | 0.00 | 0.00 | 0.00 | 39 | 1004.1 |
| 20260904133047 | 67 | 26 | 0.0 | 0.0 | 0.00 | 0.00 | 0.00 | 40 | 1004.1 |
| 20260904131604 | 64 | 26 | 0.0 | 1.7 | 0.00 | 0.00 | 0.00 | 41 | 1004.0 |
| 20260904130041 | 64 | 334 | 0.9 | 2.6 | 0.00 | 0.00 | 0.00 | 40 | 1003.7 |
| 20260904124543 | 62 | 13 | 0.0 | 0.0 | 0.00 | 0.00 | 0.00 | 41 | 1003.5 |
| 20260904123046 | 62 | 13 | 0.0 | 3.5 | 0.00 | 0.00 | 0.00 | 41 | 1003.2 |
| 20260904121534 | 63 | 337 | 0.0 | 0.0 | 0.00 | 0.00 | 0.00 | 40 | 1003.1 |
| 20260904120033 | 64 | 345 | 0.0 | 0.0 | 0.00 | 0.00 | 0.00 | 38 | 1002.9 |
| 20260904114541 | 64 | 304 | 0.0 | 0.0 | 0.00 | 0.00 | 0.00 | 38 | 1002.8 |
| 20260904113033 | 65 | 304 | 0.0 | 1.7 | 0.00 | 0.00 | 0.00 | 36 | 1002.6 |
| 20260904111528 | 65 | 294 | 0.0 | 2.6 | 0.00 | 0.00 | 0.00 | 37 | 1002.5 |
| 20260904110034 | 65 | 292 | 0.0 | 2.6 | 0.00 | 0.00 | 0.00 | 39 | 1002.3 |
| 20260904104523 | 64 | 336 | 0.0 | 0.0 | 0.00 | 0.00 | 0.00 | 41 | 1002.3 |
| 20260904103022 | 65 | 336 | 0.0 | 0.0 | 0.00 | 0.00 | 0.00 | 40 | 1001.9 |
| 20260904101521 | 65 | 336 | 0.0 | 0.9 | 0.00 | 0.00 | 0.00 | 41 | 1001.8 |
| 20260904100019 | 64 | 297 | 0.0 | 0.0 | 0.00 | 0.00 | 0.00 | 44 | 1001.6 |
| 20260904094517 | 64 | 297 | 0.0 | 0.0 | 0.00 | 0.00 | 0.00 | 46 | 1001.5 |
| 20260904093016 | 66 | 297 | 0.0 | 0.0 | 0.00 | 0.00 | 0.00 | 44 | 1001.3 |
| 20260904091515 | 67 | 297 | 0.0 | 0.0 | 0.00 | 0.00 | 0.00 | 40 | 1001.3 |
| 20260904090019 | 68 | 297 | 0.0 | 0.9 | 0.00 | 0.00 | 0.00 | 40 | 1001.2 |
| 20260904084514 | 69 | 297 | 1.7 | 5.2 | 0.00 | 0.00 | 0.00 | 38 | 1001.0 |
| 20260904083016 | 68 | 5 | 1.7 | 5.2 | 0.00 | 0.00 | 0.00 | 42 | 1001.1 |
| 20260904081514 | 67 | 1 | 3.5 | 5.2 | 0.00 | 0.00 | 0.00 | 45 | 1001.2 |
| 20260904080011 | 65 | 343 | 1.7 | 3.5 | 0.00 | 0.00 | 0.00 | 46 | 1001.2 |
| 20260904074511 | 65 | 240 | 0.0 | 0.0 | 0.00 | 0.00 | 0.00 | 45 | 1001.3 |
| 20260904073009 | 65 | 234 | 0.9 | 2.6 | 0.00 | 0.00 | 0.00 | 44 | 1001.3 |
| 20260904071517 | 66 | 19 | 0.0 | 0.0 | 0.00 | 0.00 | 0.00 | 42 | 1001.1 |
| 20260904070002 | 66 | 19 | 0.0 | 0.0 | 0.00 | 0.00 | 0.00 | 40 | 1001.0 |